FW6369 Weather Reports


Display with metric or nautical units.
time (UTC)temp
F
wind
direction
speed
MPH
gust
MPH
rain 1hr
in
rain 24hr
in
rain mn
in
humidity
%
barometer
mb
20260509184554 75 5 1.0 6.0 0.00 0.00 0.00 57 1015.1
20260509183053 74 167 1.0 4.0 0.00 0.00 0.00 57 1015.2
20260509181607 73 0 0.0 4.0 0.00 0.00 0.00 60 1015.2
20260509180050 72 99 1.0 4.0 0.00 0.00 0.00 60 1015.3
20260509174557 71 0 1.0 4.0 0.00 0.00 0.00 62 1015.4
20260509173057 70 257 0.0 3.0 0.00 0.00 0.00 65 1015.4
20260509171606 69 0 0.0 4.0 0.00 0.00 0.00 66 1015.6
20260509170052 67 320 1.0 3.0 0.00 0.00 0.00 70 1015.5
20260509164553 65 96 0.0 3.0 0.00 0.00 0.00 72 1015.6
20260509163101 64 98 0.0 4.0 0.00 0.00 0.00 75 1015.7
20260509161551 62 0 1.0 4.0 0.00 0.00 0.00 76 1015.9
20260509160052 60 117 1.0 4.0 0.00 0.00 0.00 80 1016.0
20260509154552 58 106 1.0 3.0 0.00 0.00 0.00 87 1015.9
20260509153052 55 175 0.0 2.0 0.00 0.00 0.00 95 1016.0
20260509151553 53 0 0.0 2.0 0.00 0.00 0.00 98 1015.9
20260509150049 51 0 0.0 2.0 0.00 0.00 0.00 98 1015.7
20260509144547 49 0 0.0 1.0 0.00 0.00 0.00 97 1015.6
20260509143054 49 0 0.0 1.0 0.00 0.00 0.00 97 1015.7
20260509141551 48 0 0.0 0.0 0.00 0.00 0.00 97 1015.5
20260509140051 47 0 0.0 0.0 0.00 0.00 0.00 97 1015.4
20260509134553 47 0 0.0 0.0 0.00 0.00 0.00 97 1015.3
20260509133104 47 0 0.0 0.0 0.00 0.00 0.00 96 1015.3
20260509131555 47 0 0.0 0.0 0.00 0.00 0.00 96 1015.3
20260509130049 47 0 0.0 0.0 0.00 0.00 0.00 96 1015.2
20260509124547 47 0 0.0 0.0 0.00 0.00 0.00 96 1015.3
20260509123051 47 0 0.0 1.0 0.00 0.00 0.00 96 1015.2
20260509121555 47 0 0.0 0.0 0.00 0.00 0.00 96 1015.2
20260509120051 47 0 0.0 0.0 0.00 0.00 0.00 96 1015.2
20260509114556 47 0 0.0 0.0 0.00 0.00 0.00 96 1015.3
20260509113053 47 0 0.0 0.0 0.00 0.00 0.00 96 1015.4
20260509111553 47 0 0.0 0.0 0.00 0.00 0.00 95 1015.3
20260509110057 47 0 0.0 0.0 0.00 0.00 0.00 95 1015.4
20260509104549 48 0 0.0 0.0 0.00 0.00 0.00 95 1015.3
20260509103054 48 0 0.0 0.0 0.00 0.00 0.00 95 1015.3
20260509101550 48 0 0.0 0.0 0.00 0.00 0.00 95 1015.3
20260509100108 48 0 0.0 1.0 0.00 0.00 0.00 95 1015.3
20260509094551 49 161 0.0 1.0 0.00 0.00 0.00 95 1015.3
20260509093048 49 0 0.0 1.0 0.00 0.00 0.00 95 1015.4
20260509091552 49 0 0.0 1.0 0.00 0.00 0.00 95 1015.6
20260509090055 49 0 0.0 1.0 0.00 0.00 0.00 95 1015.7
20260509084551 49 0 0.0 0.0 0.00 0.00 0.00 94 1015.7
20260509083051 50 0 0.0 0.0 0.00 0.00 0.00 94 1015.7
20260509081551 50 0 0.0 0.0 0.00 0.00 0.00 94 1015.7
20260509080120 50 0 0.0 1.0 0.00 0.00 0.00 94 1015.9
20260509074551 50 0 0.0 0.0 0.00 0.00 0.00 93 1015.9
20260509073144 51 0 0.0 0.0 0.00 0.00 0.00 93 1015.9
20260509071550 51 0 0.0 0.0 0.00 0.00 0.00 93 1016.0
20260509070054 51 0 0.0 1.0 0.00 0.00 0.00 92 1016.1
20260509064549 52 0 0.0 1.0 0.00 0.00 0.00 92 1016.0
20260509063048 52 0 0.0 2.0 0.00 0.00 0.00 91 1016.1
20260509061557 53 0 0.0 1.0 0.00 0.00 0.00 90 1016.3
20260509060051 53 0 0.0 2.0 0.00 0.00 0.00 89 1016.1
20260509054554 54 0 0.0 1.0 0.00 0.00 0.00 88 1016.2
20260509053051 55 0 0.0 1.0 0.00 0.00 0.00 87 1016.3
20260509051601 55 0 0.0 1.0 0.00 0.00 0.00 85 1016.3
20260509050053 56 0 0.0 2.0 0.00 0.00 0.00 84 1016.1
20260509044551 57 0 0.0 1.0 0.00 0.00 0.00 83 1016.0
20260509043058 57 0 1.0 4.0 0.00 0.00 0.00 81 1015.8
20260509041551 58 0 1.0 2.0 0.00 0.00 0.00 80 1015.9
20260509040104 59 0 0.0 3.0 0.00 0.00 0.00 79 1015.6
20260509034548 60 121 1.0 4.0 0.00 0.00 0.00 77 1015.5
20260509033051 61 191 0.0 3.0 0.00 0.00 0.00 76 1015.5
20260509031554 62 108 1.0 6.0 0.00 0.00 0.00 75 1015.4
20260509030053 63 115 1.0 6.0 0.00 0.00 0.00 74 1015.1
20260509024546 64 173 1.0 5.0 0.00 0.00 0.00 73 1015.3
20260509023048 64 213 0.0 6.0 0.00 0.00 0.00 72 1015.1
20260509021549 65 173 2.0 6.0 0.00 0.00 0.00 70 1015.1
20260509020053 66 178 2.0 9.0 0.00 0.00 0.00 69 1015.0
20260509014550 68 138 4.0 10.0 0.00 0.00 0.00 67 1015.1
20260509013101 69 101 3.0 7.0 0.00 0.00 0.00 66 1015.2
20260509011551 70 211 3.0 8.0 0.00 0.00 0.00 65 1015.2
20260509010054 70 142 2.0 8.0 0.00 0.00 0.00 65 1015.2
20260509004610 71 211 3.0 8.0 0.00 0.00 0.00 65 1015.3
20260509003052 71 151 3.0 7.0 0.00 0.00 0.00 65 1015.5
20260509001548 72 169 3.0 8.0 0.00 0.00 0.00 64 1015.4
20260509000052 72 201 4.0 9.0 0.00 0.00 0.00 63 1015.7
20260508234549 73 96 3.0 7.0 0.00 0.00 0.00 63 1015.9
20260508233114 73 80 3.0 9.0 0.00 0.00 0.00 63 1015.9
20260508231556 74 211 3.0 10.0 0.00 0.00 0.00 62 1015.9
20260508230100 74 123 5.0 9.0 0.00 0.00 0.00 62 1016.2
20260508224555 74 114 3.0 9.0 0.00 0.00 0.00 64 1016.3
20260508223051 73 158 3.0 12.0 0.00 0.00 0.00 64 1016.6
20260508221548 74 107 4.0 11.0 0.00 0.00 0.00 63 1016.6
20260508220059 75 229 3.0 9.0 0.00 0.00 0.00 63 1016.7
20260508214550 75 211 2.0 11.0 0.00 0.00 0.00 62 1016.8
20260508213050 75 85 2.0 7.0 0.00 0.00 0.00 63 1017.1
20260508211555 74 200 2.0 8.0 0.00 0.00 0.00 62 1017.1
20260508210106 73 177 4.0 8.0 0.00 0.00 0.00 63 1017.3
20260508204553 73 171 2.0 8.0 0.00 0.00 0.00 63 1017.3
20260508203053 71 108 2.0 9.0 0.00 0.00 0.00 66 1017.4
20260508201548 72 202 2.0 8.0 0.00 0.00 0.00 65 1017.7
20260508200052 71 151 2.0 8.0 0.00 0.00 0.00 65 1017.8
20260508194552 71 109 1.0 7.0 0.00 0.00 0.00 65 1018.0
20260508193054 71 186 2.0 6.0 0.00 0.00 0.00 65 1018.1
20260508191553 70 196 2.0 7.0 0.00 0.00 0.00 68 1018.2